Hourly Weather Roundup
Issued by NWS Central Illinois

Home | Current Version | Previous Version | Text Only | Print | Product List | Glossary On
Versions: 1 2 3 4 5 6 7 8 9 10 11 12 13 14 15 16 17 18 19 20 21 22 23 24 25 26 27 28 29 30 31 32 33 34 35 36 37 38 39 40 41 42 43 44 45 46 47 48 49 50
000
NZUS43 KILX 210010
HWRILX

Area Weather Roundup
National Weather Service Lincoln IL
600 PM CST MON NOV 20 2017

NOTE:  "FAIR" indicates few or no clouds below 12,000 feet, with
       no sigificant weather and/or obstructions to visibility.


CITY           SKY/WX    TMP DP  RH WIND       PRES   REMARKS
Bloomington    CLEAR     44  32  62 S26       29.81F WCI  35
6HR MIN TEMP:  44; 6HR MAX TEMP:  53;

Champaign      CLEAR     44  32  62 S21       29.88F
6HR MIN TEMP:  44; 6HR MAX TEMP:  53;

Danville       CLEAR     44  31  60 S21G29    29.87F
6HR MIN TEMP:  44; 6HR MAX TEMP:  50;

Decatur        CLEAR     45  30  55 S20       29.87F
6HR MIN TEMP:  45; 6HR MAX TEMP:  55;

Effingham      CLEAR     46  30  54 SE9       29.96F
6HR MIN TEMP:  46; 6HR MAX TEMP:  55;

Flora          CLEAR     44  30  57 S10       29.98S
6HR MIN TEMP:  44; 6HR MAX TEMP:  54;

Galesburg      CLOUDY    49  34  56 S10       29.75R
6HR MIN TEMP:  49; 6HR MAX TEMP:  58;

Jacksonville   CLEAR     50  29  44 S13       29.81R
6HR MIN TEMP:  50; 6HR MAX TEMP:  58;

Lacon          CLEAR     49  32  51 S15G23    29.74S
6HR MIN TEMP:  49; 6HR MAX TEMP:  56;

Lawrenceville  CLEAR     43  30  60 S12       30.01F
6HR MIN TEMP:  42; 6HR MAX TEMP:  51;

Litchfield     CLEAR     45  32  60 S17       29.88S
6HR MIN TEMP:  45; 6HR MAX TEMP:  54;

$$


CITY           SKY/WX    TMP DP  RH WIND       PRES   REMARKS
Lincoln        CLEAR     47  34  62 S18G24    29.82F
6HR MIN TEMP:  47; 6HR MAX TEMP:  56;

Macomb         CLEAR     50  32  50 S10       29.77S
6HR MIN TEMP:  49; 6HR MAX TEMP:  57;

Mattoon        CLEAR     45  29  53 S14       29.91F
6HR MIN TEMP:  45; 6HR MAX TEMP:  51;

Mt Carmel AP   CLEAR     43  28  56 S8        30.01S
6HR MIN TEMP:  43; 6HR MAX TEMP:  51;

Olney-Noble AP CLEAR     44  25  47 S9        29.99S
Paris AP       CLEAR     42  32  68 S15G24    29.95S WCI  34
6HR MIN TEMP:  42; 6HR MAX TEMP:  51;

Peoria         CLEAR     48  34  58 S15       29.78S
6HR MIN TEMP:  48; 6HR MAX TEMP:  58;

Pontiac        CLEAR     46  34  61 S20G26    29.80S
6HR MIN TEMP:  46; 6HR MAX TEMP:  55;

Rantoul        CLEAR     44  35  69 S17G23    29.87F
6HR MIN TEMP:  44; 6HR MAX TEMP:  53;

Robinson       CLEAR     42  29  59 S10       30.00S
6HR MIN TEMP:  42; 6HR MAX TEMP:  52;

Springfield    CLEAR     50  32  50 S20G31    29.83F
6HR MIN TEMP:  50; 6HR MAX TEMP:  59;

Taylorville    CLEAR     46  31  58 S21G26    29.86F
6HR MIN TEMP:  46; 6HR MAX TEMP:  54;

$$

...REGIONAL REPORTS...


CITY           SKY/WX    TMP DP  RH WIND       PRES   REMARKS
Chicago O`Hare MOCLDY    50  33  52 S21G30    29.73S
Kankakee       CLEAR     44  32  62 S15G25    29.83F
Moline         CLOUDY    53  32  44 S15       29.70R
Mount Sterling CLEAR     52  28  40 S13       29.77S
Mount Vernon   CLEAR     46  29  51 S12       29.99S
Pittsfield     CLEAR     53  29  40 S9        29.81R
Quincy         CLEAR     51  31  46 S12       29.78R
Rockford       CLOUDY    46  33  60 S12       29.72R
$$


CITY           SKY/WX    TMP DP  RH WIND       PRES   REMARKS
Burlington     CLOUDY    51  34  52 S15       29.73R
Cedar Rapids   CLOUDY    51  30  44 S12       29.64S
Des Moines     CLOUDY    55  28  35 SW12      29.64R
Kirksville     CLOUDY    55  31  39 SW15G24   29.75R
Ottumwa        CLOUDY    53  29  39 S13       29.68R
St Louis       CLEAR     53  27  36 S14       29.88S
$$


CITY           SKY/WX    TMP DP  RH WIND       PRES   REMARKS
Terre Haute    CLEAR     44  27  51 S13       29.97F
Evansville     CLEAR     45  26  47 S6        30.05R
Indianapolis   PTCLDY    44  24  45 S14       29.98F
Lafayette      CLEAR     43  30  60 S10       29.91S
Madison        CLOUDY    50  33  52 S14G25    29.60S
Milwaukee      CLOUDY    50  33  52 SW20G30   29.65R
$$






USA.gov is the U.S. government's official web portal to all federal, state and local government web resources and services.